KB4ID Weather Reports


Display with metric or nautical units.
time (UTC)temp
F
wind
direction
speed
MPH
gust
MPH
rain 1hr
in
rain 24hr
in
rain mn
in
humidity
%
barometer
mb
20210613082407 68 236 0.0 0.0 0.00 0.00 0.00 97 1010.8
20210613075406 68 236 0.0 0.0 0.00 0.00 0.00 97 1010.8
20210613074405 68 236 0.0 0.0 0.00 0.00 0.00 97 1010.4
20210613064406 69 236 0.0 0.0 0.00 0.00 0.00 97 1010.4
20210613063406 69 236 0.0 0.0 0.00 0.00 0.00 97 1010.4
20210613061406 69 236 0.0 0.0 0.00 0.00 0.00 96 1010.8
20210613060406 69 236 0.0 0.0 0.00 0.00 0.00 96 1010.8
20210613054406 69 236 0.0 0.0 0.00 0.00 0.00 96 1010.4
20210613053406 69 236 0.0 0.0 0.00 0.00 0.00 96 1010.8
20210613052406 69 236 0.0 0.0 0.00 0.00 0.00 96 1011.1
20210613051407 69 244 0.0 0.0 0.00 0.00 0.00 96 1011.1
20210613050407 69 244 0.0 0.0 0.00 0.01 0.00 96 1011.1
20210613044406 69 244 0.0 0.0 0.00 0.01 0.00 96 1011.1
20210613043405 69 244 0.0 0.0 0.00 0.02 0.00 95 1011.1
20210613035407 69 244 0.0 0.0 0.00 0.08 0.07 95 1011.1
20210613032406 70 244 0.0 0.0 0.00 0.10 0.07 95 1011.1
20210613025405 70 244 0.0 0.0 0.00 0.10 0.07 94 1010.8
20210613024406 70 244 0.0 0.0 0.00 0.10 0.07 94 1010.8
20210613020406 71 232 0.0 0.0 0.00 0.10 0.07 95 1010.1
20210613013405 71 232 0.0 0.0 0.00 0.10 0.07 94 1009.8
20210613012409 71 232 0.0 0.0 0.00 0.10 0.07 94 1009.4
20210613010407 72 232 0.0 0.0 0.00 0.10 0.07 94 1009.1
20210613004405 72 232 0.0 0.0 0.00 0.10 0.07 94 1008.8
20210613003405 72 232 0.0 0.0 0.00 0.10 0.07 94 1008.8
20210613002406 72 232 0.0 0.0 0.00 0.10 0.07 93 1008.8
20210613001408 72 214 0.0 0.0 0.00 0.10 0.07 93 1008.4
20210612235406 73 214 0.0 0.0 0.00 0.10 0.07 92 1008.4
20210612234406 73 214 0.0 0.0 0.00 0.10 0.07 92 1008.4
20210612233405 73 214 0.0 0.0 0.00 0.10 0.07 91 1008.4
20210612230408 74 214 0.0 0.0 0.00 0.10 0.07 92 1008.1
20210612223406 74 214 0.0 0.0 0.00 0.10 0.07 91 1008.1
20210612222406 74 214 0.0 0.0 0.00 0.10 0.07 90 1008.1
20210612221406 74 214 0.0 0.0 0.00 0.10 0.07 91 1008.1
20210612214407 75 188 0.0 0.0 0.00 0.10 0.07 92 1008.1
20210612213406 75 188 0.0 0.0 0.00 0.10 0.07 91 1008.1
20210612204407 75 226 0.0 0.0 0.00 0.10 0.07 89 1008.1
20210612201408 74 209 0.0 0.0 0.00 0.10 0.07 90 1007.7
20210612200405 74 210 0.0 0.0 0.00 0.10 0.07 92 1007.7
20210612194410 74 198 0.0 0.0 0.00 0.10 0.07 90 1007.4
20210612193410 75 202 0.0 0.0 0.00 0.10 0.07 90 1007.4
20210612192406 74 186 0.0 0.0 0.00 0.10 0.07 89 1007.7
20210612191406 74 213 0.0 0.0 0.00 0.10 0.07 90 1007.7
20210612190408 75 226 0.0 0.0 0.00 0.10 0.07 89 1007.7
20210612185406 75 181 0.0 1.0 0.00 0.10 0.07 88 1008.1
20210612183406 75 202 0.0 0.0 0.00 0.10 0.07 89 1007.7
20210612182406 76 188 0.0 0.0 0.00 0.10 0.07 88 1007.7
20210612181406 76 213 0.0 0.0 0.00 0.10 0.07 89 1007.7
20210612180406 76 207 0.0 0.0 0.00 0.10 0.07 89 1008.1
20210612175405 76 182 0.0 0.0 0.00 0.10 0.07 86 1008.1
20210612174407 76 209 0.0 0.0 0.00 0.10 0.07 89 1008.1
20210612173406 76 215 0.0 0.0 0.00 0.10 0.07 87 1008.1
20210612171406 76 189 0.0 0.0 0.00 0.10 0.07 87 1008.1
20210612170405 76 205 0.0 0.0 0.00 0.10 0.07 89 1008.1
20210612164406 76 198 0.0 2.0 0.00 0.10 0.07 88 1008.1
20210612163405 76 188 0.0 0.0 0.00 0.10 0.07 89 1008.1
20210612162408 76 194 0.0 1.0 0.00 0.10 0.07 89 1008.4
20210612161405 75 243 0.0 0.0 0.00 0.10 0.07 90 1008.4
20210612155405 75 163 0.0 0.0 0.00 0.10 0.07 90 1008.1
20210612153405 75 230 0.0 0.0 0.00 0.10 0.07 92 1007.7
20210612152405 74 194 0.0 0.0 0.00 0.10 0.07 93 1007.7
20210612150405 73 204 0.0 0.0 0.00 0.10 0.07 96 1007.7
20210612145405 72 221 0.0 0.0 0.00 0.10 0.07 96 1007.7
20210612143409 71 180 0.0 0.0 0.00 0.10 0.07 99 1007.4
20210612142407 70 180 0.0 0.0 0.00 0.10 0.07 99 1007.4
20210612135405 69 206 0.0 0.0 0.00 0.10 0.07 100 1007.7
20210612134404 69 205 0.0 0.0 0.00 0.10 0.07 100 1007.7
20210612125406 69 217 0.0 0.0 0.00 0.10 0.07 100 1007.4
20210612122405 69 190 0.0 0.0 0.00 0.10 0.07 100 1006.7
20210612120404 69 190 0.0 0.0 0.00 0.10 0.07 100 1006.7
20210612114406 69 180 0.0 0.0 0.00 0.10 0.07 100 1006.7
20210612113405 69 180 0.0 0.0 0.00 0.10 0.07 100 1006.7
20210612112407 69 179 0.0 0.0 0.00 0.10 0.07 100 1006.7
20210612105405 69 179 0.0 0.0 0.00 0.10 0.07 100 1006.4
20210612103407 69 179 0.0 0.0 0.00 0.10 0.07 100 1006.4
20210612102406 69 180 0.0 0.0 0.00 0.10 0.07 100 1006.0
20210612100405 69 180 0.0 0.0 0.00 0.10 0.07 100 1006.0
20210612095407 69 180 0.0 0.0 0.00 0.10 0.07 100 1006.0
20210612094406 69 180 0.0 0.0 0.00 0.10 0.07 100 1006.0
20210612093407 69 179 0.0 0.0 0.00 0.10 0.07 100 1006.0
20210612084406 70 180 0.0 0.0 0.00 0.10 0.07 100 1006.0
20210612083406 70 180 0.0 0.0 0.00 0.10 0.07 100 1005.7